Other Public Products
Issued by NWS Grand Forks, ND

Home | Current Version | Previous Version | Graphics & Text | Print | Product List | Glossary On
Versions: 1 2 3 4 5 6 7 8 9 10 11 12 13 14 15 16 17 18 19 20 21 22 23 24 25 26 27 28 29 30 31 32 33 34 35 36 37 38 39 40 41 42 43 44 45 46 47 48 49 50
000
FPUS83 KFGF 281010
OPUFGF
PRAIRIE TO PINES WEATHER ROUNDUP
NATIONAL WEATHER SERVICE EASTERN NORTH DAKOTA/GRAND FORKS ND
500 AM CDT SAT MAR 28 2015

 **SATELLITE DATA USED TO AUGMENT SKY COVER AT AUTOMATED STATIONS**
 *****  WEATHER ACROSS EASTERN NORTH DAKOTA  *****

CITY           SKY/WX    TMP DP  RH WIND       PRES   REMARKS
GRAND FORKS    MOCLDY    22  17  81 SE8       30.09S WCI  12
GRAND FORKS AF CLOUDY    24  21  89 SE9       30.07F WCI  14
GRAND CITY NWS   N/A     23 N/A N/A SE9         N/A  WCI  13
BUXTON         NOT AVBL
DEVILS LAKE    CLOUDY    28  25  86 S13       30.00S WCI  18
FARGO          CLEAR     27  17  66 SE12      30.11R WCI  17
WAHPETON ARPT  SUNNY     27  19  74 SE9       30.12S WCI  17
$$

 *****  WEATHER ACROSS CENTRAL AND WESTERN NORTH DAKOTA  *****

CITY           SKY/WX    TMP DP  RH WIND       PRES   REMARKS
JAMESTOWN      CLOUDY    29  26  89 S9        30.02F WCI  20
BISMARCK       CLOUDY    30  30 100 S12       29.98F FOG     WCI  20
MINOT          CLOUDY    27  25  92 E8        29.92F FOG     WCI  19
MINOT AFB      MOCLDY    27  27 100 SE8       29.92F WCI  18
GARRISON         N/A     26  24  92 E6        29.93F WCI  19
WILLISTON      CLEAR     30  29  96 N3        29.85F
DICKINSON      CLEAR     34  29  82 S12       29.88F
HETTINGER      CLEAR     33  29  85 S3        29.93F
$$

 *****  OTHER OBSERVATIONS NORTHEAST NORTH DAKOTA  *****

CITY           SKY/WX    TMP DP  RH WIND       PRES   REMARKS
WALHALLA         N/A     23  23 100 SE6       30.06S WCI  16
LANGDON        NOT AVBL
CAVALIER         N/A     23  23 100 SE5       30.07S WCI  17
GRAFTON        NOT AVBL
CANDO          NOT AVBL
FORT TOTTEN      N/A     27  27 100 S10       29.95S WCI  17
ROLLA          FOG       27  27 100 S18G30    29.97F VSB 1/2 WCI  13
RUGBY          CLOUDY    28  28 100 S9        29.97S WCI  20
 ***** THE ABOVE OBSERVATIONS ARE NON NWS ARE NOT QUALITY
        CONTROLLED AND MAY MIS-REPORT RAIN FOR SNOW...
$$

 *****  OTHER OBSERVATIONS SOUTHEAST NORTH DAKOTA *****

CITY           SKY/WX    TMP DP  RH WIND       PRES   REMARKS
COOPERSTOWN    NOT AVBL
VALLEY CITY    CLOUDY    28  28 100 S8        30.05S WCI  20
OAKES            N/A     28  28 100 S12       30.06S WCI  18
GWINNER        PTSUNNY   32  30  93 S12         N/A  WCI  23
SHEYENNE NWR     N/A     23  22  95 SE7       29.95  WCI  15
BUFFALO        NOT AVBL
WYNDMERE         N/A     28  25  86 S8          N/A  WCI  20
 ***** THE ABOVE OBSERVATIONS ARE NON NWS ARE NOT QUALITY
       CONTROLLED AND MAY MIS-REPORT RAIN FOR SNOW...
$$

  *****  WEATHER ACROSS NORTHERN MINNESOTA  *****

CITY           SKY/WX    TMP DP  RH WIND       PRES   REMARKS
FLAG ISLAND    CLEAR     14   9  79 CALM      30.11R
WARROAD        CLEAR     19  16  86 CALM      30.11S
ROSEAU         CLEAR     21  14  73 S5        30.11S WCI  15
HALLOCK        CLEAR     21  18  86 SE9       30.09S WCI  11
THF RVR FALLS  CLEAR     23  18  80 SE6       30.11S WCI  16
HALSTAD        NOT AVBL
FOSSTON        CLEAR     19  14  79 SE5       30.12R WCI  13
BAUDETTE       CLEAR     16  12  84 CALM      30.11R
WASKISH        CLEAR     12  10  92 CALM      30.11F
CROOKSTON      CLEAR     21  18  86 SE9       30.11F WCI  11
$$
  *****  WEATHER ACROSS CENTRAL AND WEST MINNESOTA  *****

CITY           SKY/WX    TMP DP  RH WIND       PRES   REMARKS
BEMIDJI        CLEAR     13   9  83 CALM      30.12R
PARK RAPIDS    CLEAR     20  12  71 S5        30.11S WCI  13
WADENA         PTCLDY    19  14  79 SE3       30.12S
DETROIT LAKES  CLEAR     23  18  80 SE6       30.12S WCI  16
MOORHEAD       CLEAR     25  19  80 SE9       30.12S WCI  15
FERGUS FALLS   CLEAR     25  16  68 SE9       30.15S WCI  15
ELBOW LAKE     FAIR      23  18  80 SE7       30.12S WCI  15
MORRIS MN      CLEAR     25  21  86 E7        30.12S WCI  17
STAPLES        CLEAR     18  12  79 CALM      30.13F
WHEATON        MOCLDY    27  23  86 SE9       30.14S WCI  17
$$
  *****  WEATHER ELSEWHERE ACROSS MINNESOTA  *****

CITY           SKY/WX    TMP DP  RH WIND       PRES   REMARKS
DULUTH         CLEAR     18  12  77 SE3       30.15R
INTRNTL FALLS  CLEAR     13   7  77 SE5       30.13R WCI   5
ELY            CLEAR      7   3  85 CALM      30.15R
CLOQUET        CLEAR     12  10  92 CALM      30.16S
BRAINERD       CLEAR     14  10  84 CALM      30.16R
HIBBING        CLEAR      6   2  83 CALM      30.15S
ALEXANDRIA     CLOUDY    24  16  71 SE7       30.12F WCI  16
SAINT CLOUD    CLEAR     19  11  70 CALM      30.17S
MINNEAPOLIS    MOCLDY    22   8  55 SE5       30.20S WCI  16
$$

  *****  WEATHER ACROSS SOUTH DAKOTA  *****

CITY           SKY/WX    TMP DP  RH WIND       PRES   REMARKS
SIOUX FALLS    CLOUDY    30  24  78 SE10      30.09R WCI  21
BROOKINGS      NOT AVBL
WATERTOWN      CLOUDY    28  24  85 S12       30.06S WCI  18
HURON          CLOUDY    27  24  89 SE12      30.06F WCI  17
SISSETON         N/A     25  23  92 SE8       30.09S WCI  16
ABERDEEN       CLOUDY    32  26  78 SE9       30.06S WCI  24
MITCHELL       PTCLDY    25  22  88 SE7       30.07R WCI  17
PIERRE         CLEAR     24  22  91 E5        29.98S WCI  18
MOBRIDGE       CLEAR     26  23  88 E10       29.97R WCI  16
RAPID CITY     PTCLDY    40  31  70 W5        29.93F
$$

  *****  SOME WEATHER IN NEARBY STATES *****

CITY           SKY/WX    TMP DP  RH WIND       PRES   REMARKS
GLASGOW MT     PTCLDY    40  34  79 E12       29.74F
GREAT FALLS MT CLEAR     51  34  52 S13       29.77F
CHEYENNE WY    CLEAR     46  24  42 W15       30.08F
SCOTTSBLUFF NE CLEAR     36  29  75 N5        29.99F
OMAHA NE       MOCLDY    34  27  75 SE10      30.11S
DES MOINES IA  CLOUDY    33  12  41 E5        30.17R
DAVENPORT IA   PTCLDY    20  13  74 E7        30.24R WCI  11
CHICAGO IL     CLEAR     21  13  71 N5        30.23R WCI  15
EAU CLAIRE WI  CLEAR     16  11  80 NE3       30.20R
LA CROSSE WI   PTCLDY    22  14  71 E5        30.23R WCI  16
$$

  *****  SOME NATIONAL WEATHER *****

CITY           SKY/WX    TMP DP  RH WIND       PRES   REMARKS
LA GUARDIA NY  CLOUDY    36  20  52 N13       29.76S
RALEIGH NC     PTCLDY    38  28  67 NW5       29.91R
ATLANTA GA     PTCLDY    37  29  72 NW9       30.04R
NEW ORLEANS LA CLEAR     53  38  56 NE8       30.17S
OKLAHOMA CITY  MOCLDY    48  37  65 S16       30.01F
ALBUQUERQUE NM CLEAR     46  19  34 E7        30.19S
SALT LAKE CITY CLEAR     53  32  44 S9        30.09F
LOS ANGELES CA CLEAR     59  56  89 CALM      30.05S
BOISE ID       CLEAR     56  39  53 E3        29.98R
SEATTLE WA     MOCLDY    50  46  86 S14       30.10R
$$

*** WEATHER ACROSS MANITOBA...SASKATCHEWAN AND ONTARIO ***
                ***ONTARIO***

CITY           SKY/WX    TMP DP  RH WIND       PRES   REMARKS
GERALDTON      CLEAR     -2 -11  65 SW2       30.13R
THUNDER BAY    CLEAR      5   1  85 W6        30.22S WCI  -6
SIOUX LOOKOUT  CLEAR      0  -4  85 S3        30.11R
TORONTO        PTCLDY    12   1  62 N18       30.11R WCI  -5
BIG TROUT LK   PTCLDY    12   3  67 W7        29.97F WCI   2
PICKLE LAKE    NOT AVBL
DRYDEN         CLEAR     16   3  57 S7        30.10S WCI   6
KENORA         CLEAR     19   3  49 S5        30.09F WCI  13
$$
                *** MANITOBA***

CITY           SKY/WX    TMP DP  RH WIND       PRES   REMARKS
BRANDON        CLOUDY    28  27  93 S10       29.96F WCI  19
DAUPHIN        CLOUDY    30  27  86 SW10      29.93F WCI  21
ISLAND LAKE    NOT AVBL
PILOT MOUND      N/A     27  27 100 S15         N/A  WCI  15
THE PAS        CLOUDY    28  27  93 S13       29.78F WCI  18
THOMPSON       PTCLDY    21  18  86 S6        29.78F WCI  14
WINNIPEG       PTCLDY    25  21  86 S13       30.06F WCI  13
LYNN LAKE      CLOUDY    28  25  86 SW8       29.62F WCI  20
CHURCHILL      CLEAR     27  18  69 SW14      29.58F WCI  15
GILLAM         CLEAR     21  14  73 SW9       29.79F WCI  11
$$
                ***SASKATCHEWAN***

CITY           SKY/WX    TMP DP  RH WIND       PRES   REMARKS
ESTEVAN        CLOUDY    30  30 100 SE8       29.87F WCI  23
KINDERSLEY     CLOUDY    43  37  81 S10       29.56F
LLOYDMINSTER   MOCLDY    36  32  87 S5        29.48F
PRINCE ALBERT  MOCLDY    34  32  93 SE5       29.68F
REGINA         PTCLDY    32  32 100 SE20      29.78F WCI  20


USA.gov is the U.S. government's official web portal to all federal, state and local government web resources and services.